IRIDIUM 172 (43927 NORAD) Tracking and Keplerian Element Data

This shows tracking and keplerian element data for the satellite.

Feedback or suggestion? Click here.




ElementValue
Catalog43927
NameIRIDIUM 172
Epoch Orbit422
Epoch Day40.90636703
Epoch Year2019
RAAN35.3159
Inclination86.3958
Eccentricity0.0001836
Argument of Perigee83.2029
Mean Anonmoly276.9375
Mean Motion14.34215899
Decay Rate2.1E-07
L11 43927U 19002F 19040.90636703 .00000021 00000-0 36401-6 0 9998
L22 43927 86.3958 35.3159 0001836 83.2029 276.9375 14.34215899 4227

Live tracking and technical data element details for IRIDIUM 172 (NORAD 43927). IRIDIUM 172 can be tracked NOW for your location showing map with azimuth and elevation plus other details from your city location.

Track the satellite on the map from your city or location and see movement details for azimuth, elevation, latitude, longitude, range, height, and movement on the map or in text.







IsCatalogInMostPopularTable: catalog: 43927, numindb: 130
Update: records affected: 1



GetName: 43927 IRIDIUM 172

Hit Count: updated at: Mon, 15 Jul 2019 22:31:48 GMT